Voltar ao catálogo

STARLINK-30075

AtivoComunicaçõesVLEO
NORAD 57616·PAYLOAD·🇺🇸 United States

Lançado Aug 11, 2023 de Cape Canaveral Space Force Station

Loading…

Próximas Passagens (próximas 24 horas)

TLE

AtualizadoSource: CelesTrak SupGP

Época: Sep 15, 2026, 01:29 UTC

1 57616C 23119Q   26258.06229167  .00032062  00000+0  11609-2 0  2586
2 57616  43.0032  91.7191 0001979 268.9763  69.7124 15.27572949    15

Acompanhe STARLINK-30075 em tempo real com AllMySat

Download on the App Store